[[{"header":{"parameterUnit":"m.s-1","parameterCategory":1,"la1":30.2991,"la2":30.254,"lo1":-89.0895,"lo2":-89.0444,"dy":0.0017,"dx":0.0017,"nx":28,"ny":28,"refTime":"2025-07-27T03:00:00:Z","depth":0,"parameterNumber":2,"parameterNumberName":"U-component_of_WINDS"},"data":[0,0,0,0,0,0,0,0,0,0,0,0,0,0,0,0,0,0,0,0,0,0,0,0,0,0,0,0,0,0,0,0,0,0,0,0,0,0,0,0,0,0,0,0,0,0,0,0,0,0,0,0,0,0,0,0,0,0,1.6562,1.6563,0,1.67,1.6701,1.6703,1.6746,1.6746,1.6745,1.6744,1.6885,1.689,1.6894,0,0,0,0,0,0,0,0,0,0,0,0,0,1.6336,1.634,1.6562,1.6563,1.6565,1.6699,1.6701,1.6703,1.6746,1.6746,1.6745,1.6744,1.6884,1.6889,1.6894,0,0,0,0,0,0,0,0,0,0,0,0,0,1.645,1.6341,1.6561,1.6603,1.6608,1.6699,1.6701,1.6704,1.6747,1.6746,1.6745,1.6744,1.6882,1.6889,1.6895,1.6954,0,0,1.6915,1.6918,0,0,0,0,0,0,0,0,1.6443,1.6458,1.6595,1.66,1.6606,1.6705,1.6673,1.6788,1.6747,1.6694,1.6744,1.6743,1.6826,1.6837,1.6865,1.6961,1.6967,1.6916,1.6919,1.6922,1.6924,0,0,0,0,0,0,0,1.6435,1.6452,1.6616,1.6597,1.6604,1.6615,1.663,1.6695,1.6764,1.6699,1.6702,1.6718,1.6829,1.6859,1.6869,1.6969,1.6915,1.6921,1.6925,1.6928,1.712,1.7122,0,0,0,0,0,0,1.642,1.6445,1.6612,1.662,1.6521,1.6619,1.6636,1.6674,1.6763,1.6776,1.6718,1.6719,1.6848,1.6861,1.6874,1.6949,1.6922,1.6928,1.6932,1.7119,1.7121,1.7122,0,0,0,0,0,0,1.6415,1.6435,1.6606,1.6534,1.6557,1.6624,1.6666,1.6677,1.6707,1.6778,1.6791,1.6736,1.6848,1.6865,1.6934,1.6954,1.6931,1.6937,1.7118,1.712,1.7121,1.7099,0,0,0,0,0,0,1.6409,1.6433,1.6456,1.6534,1.656,1.6664,1.6668,1.6681,1.6718,1.6721,1.6798,1.681,1.6848,1.6924,1.694,1.6963,1.6942,1.7116,1.7119,1.7121,1.7099,1.71,1.7102,0,0,0,0,0,1.64,1.6444,1.6457,1.6477,1.6591,1.6665,1.668,1.6723,1.672,1.6744,1.6789,1.6808,1.695,1.6931,1.695,1.6974,1.7115,1.7118,1.7121,1.7098,1.71,1.7102,0,0,0,0,0,0,1.6366,1.6455,1.647,1.6541,1.6595,1.6672,1.6704,1.6724,1.678,1.678,1.6831,1.6849,1.6914,1.6951,1.6929,1.7036,1.7033,1.704,1.7009,1.7012,1.7013,1.7003,1.6948,0,0,0,0,0,1.6367,1.642,1.6495,1.655,1.6577,1.6635,1.6669,1.6698,1.6756,1.6779,1.683,1.6886,1.6943,1.698,1.7036,1.7104,1.7122,1.7131,1.7132,1.7133,1.7138,1.7176,1.7181,1.7131,1.7131,1.7131,0,0,1.6369,1.6424,1.6455,1.6545,1.659,1.6644,1.6655,1.6711,1.6751,1.6788,1.6856,1.6896,1.6961,1.703,1.7063,1.7063,1.7156,1.7137,1.7137,1.7141,1.718,1.7184,1.7188,1.7133,1.7132,1.7132,0,0,1.64,1.6448,1.6499,1.6544,1.6613,1.6652,1.6664,1.6738,1.6766,1.6835,1.6864,1.6912,1.701,1.7056,1.7091,1.714,1.7159,1.7157,1.7164,1.7201,1.7205,1.7209,1.7225,1.7231,1.7162,1.7162,1.7162,0,1.6394,1.6476,1.6522,1.6577,1.6615,1.6652,1.6703,1.6745,1.6829,1.6854,1.6854,1.6977,1.7023,1.7103,1.7115,1.7143,1.7158,1.7148,1.7201,1.7205,1.7209,1.7226,1.7232,1.7161,1.7161,1.7161,1.7161,0,1.6465,1.6521,1.6554,1.6634,1.6677,1.6729,1.6783,1.682,1.6845,1.6884,1.6954,1.7012,1.708,1.7101,1.7126,1.7185,1.7183,1.7191,1.7188,1.7212,1.7229,1.7235,1.716,1.716,1.716,1.716,0,0,1.6478,1.6583,1.6594,1.663,1.6709,1.6753,1.6808,1.6875,1.6906,1.6963,1.7009,1.7091,1.7099,1.714,1.717,1.7202,1.7236,1.7207,1.7209,1.7209,1.7303,1.7296,1.7303,1.7249,1.7251,1.7252,1.7298,0,1.6518,1.6617,1.666,1.674,1.6792,1.6827,1.6875,1.6928,1.6966,1.7016,1.7058,1.7115,1.7121,1.7146,1.7179,1.7225,1.7256,1.7222,1.7293,1.7295,1.7275,1.7311,1.7304,1.7344,1.7304,1.7305,1.7306,0,1.6579,1.6635,1.672,1.6792,1.6816,1.6858,1.6923,1.697,1.7031,1.7057,1.7102,1.7131,1.7189,1.7184,1.7264,1.7241,1.7272,1.7299,1.7302,1.7309,1.7301,1.7319,1.7358,1.7364,1.7317,1.7316,1.7315,0,1.6578,1.6676,1.674,1.677,1.6856,1.6884,1.6922,1.6982,1.7019,1.7076,1.7101,1.7164,1.7198,1.7246,1.7291,1.7283,1.7368,1.7366,1.739,1.7389,1.7405,1.7404,1.7449,1.7427,1.7427,1.7427,1.7426,0,1.6619,1.6669,1.6741,1.6779,1.6837,1.6885,1.6941,1.698,1.7034,1.708,1.7115,1.7158,1.7216,1.7266,1.7302,1.7363,1.7378,1.74,1.7409,1.7397,1.7394,1.7417,1.7416,1.7428,1.7428,1.7428,1.7427,0,1.6628,1.6678,1.6749,1.6825,1.6845,1.6884,1.6949,1.6988,1.7027,1.7086,1.7103,1.7165,1.7226,1.7276,1.7356,1.738,1.7444,1.7454,1.7423,1.7428,1.7449,1.7446,1.751,1.7521,1.7492,1.7492,1.7492,0,1.665,1.6689,1.6769,1.6803,1.684,1.6894,1.6933,1.6983,1.7022,1.7094,1.7124,1.7188,1.7241,1.7337,1.739,1.7451,1.7463,1.7481,1.7472,1.7458,1.7462,1.7459,1.7463,1.7482,1.7482,1.7482,1.7482,0,1.6683,1.6706,1.6761,1.6824,1.6869,1.6921,1.6974,1.7,1.7059,1.7101,1.7164,1.7205,1.7287,1.735,1.7417,1.7455,1.7478,1.7484,1.7493,1.7481,1.7461,1.7471,1.7425,1.7483,1.7483,1.7482,1.7482,1.7482,1.6699,1.6736,1.6798,1.6857,1.6902,1.6951,1.6991,1.7036,1.709,1.716,1.7186,1.7251,1.7311,1.7403,1.7442,1.7493,1.7495,1.7508,1.7511,1.7513,1.7511,1.7453,1.7505,1.7505,1.7505,1.7505,1.7505,0,1.6733,1.6775,1.683,1.6903,1.695,1.6968,1.7027,1.7065,1.7121,1.7176,1.7228,1.73,1.7361,1.7418,1.7482,1.7512,1.7524,1.7527,1.7525,1.7533,1.7506,1.7492,1.7516,1.7516,1.7516,1.7516,1.7516,1.7516,1.6757,1.682,1.685,1.6935,1.6977,1.7041,1.7073,1.7118,1.7162,1.7241,1.7292,1.7328,1.7384,1.7452,1.7509,1.7524,1.7545,1.7545,1.7563,1.7537,1.7535,1.7533,1.752,1.755,1.755,1.7586,1.7586,1.7587]},{"header":{"parameterUnit":"m.s-1","parameterCategory":1,"la1":30.2991,"la2":30.254,"lo1":-89.0895,"lo2":-89.0444,"dy":0.0017,"dx":0.0017,"nx":28,"ny":28,"refTime":"2025-07-27T03:00:00:Z","depth":0,"parameterNumber":3,"parameterNumberName":"V-component_of_WINDS"},"data":[0,0,0,0,0,0,0,0,0,0,0,0,0,0,0,0,0,0,0,0,0,0,0,0,0,0,0,0,0,0,0,0,0,0,0,0,0,0,0,0,0,0,0,0,0,0,0,0,0,0,0,0,0,0,0,0,0,0,3.0207,3.0206,0,3.0133,3.0132,3.0131,3.0092,3.0092,3.0092,3.0092,3.0009,3.0007,3.0005,0,0,0,0,0,0,0,0,0,0,0,0,0,3.0308,3.0307,3.0207,3.0206,3.0205,3.0133,3.0132,3.0131,3.0092,3.0092,3.0092,3.0092,3.001,3.0007,3.0004,0,0,0,0,0,0,0,0,0,0,0,0,0,3.0252,3.0306,3.0207,3.0177,3.0174,3.0133,3.0132,3.013,3.0092,3.0092,3.0092,3.0092,3.001,3.0007,3.0004,2.9985,0,0,2.9994,2.9993,0,0,0,0,0,0,0,0,3.0255,3.0248,3.0182,3.0179,3.0175,3.0122,3.0137,3.0081,3.0092,3.0123,3.0092,3.0092,3.0046,3.004,3.0026,2.9981,2.9978,2.9994,2.9992,2.999,2.999,0,0,0,0,0,0,0,3.0259,3.0251,3.0177,3.0181,3.0177,3.0165,3.0157,3.0126,3.0085,3.012,3.0117,3.0109,3.0044,3.0029,3.0024,2.9977,2.9994,2.9991,2.9989,2.9988,2.9912,2.9912,0,0,0,0,0,0,3.0269,3.0255,3.018,3.0175,3.0216,3.0163,3.0154,3.0139,3.0086,3.0078,3.0109,3.0108,3.0035,3.0027,3.002,2.9995,2.999,2.9987,2.9986,2.9912,2.9912,2.9912,0,0,0,0,0,0,3.0271,3.0263,3.0183,3.0214,3.0203,3.0162,3.0144,3.0137,3.0122,3.0078,3.0069,3.0102,3.0034,3.0025,2.9995,2.9991,2.9986,2.9983,2.9912,2.9912,2.9912,2.9943,0,0,0,0,0,0,3.0274,3.0264,3.0258,3.0214,3.0202,3.016,3.0144,3.0136,3.0118,3.0115,3.0069,3.0061,3.0033,3.0,2.9991,2.9987,2.998,2.9912,2.9912,2.9912,2.9942,2.9944,2.9946,0,0,0,0,0,3.0278,3.0268,3.0258,3.0249,3.0194,3.016,3.0152,3.0123,3.0118,3.011,3.0081,3.0062,2.9993,2.9997,2.9987,2.9982,2.9912,2.9912,2.9912,2.9942,2.9944,2.9946,0,0,0,0,0,0,3.0309,3.0262,3.025,3.0226,3.0198,3.0154,3.0143,3.0127,3.0098,3.0096,3.0059,3.0048,3.0021,2.9998,3.0003,2.996,2.9951,2.9949,2.9976,2.9978,2.998,2.9986,2.9978,0,0,0,0,0,3.0314,3.0293,3.0252,3.0234,3.0221,3.0185,3.0169,3.0149,3.0117,3.0105,3.0074,3.0042,3.0013,2.9994,2.9965,2.9939,2.9928,2.993,2.9932,2.9934,2.9932,2.9916,2.9916,2.9912,2.9912,2.9912,0,0,3.0322,3.0294,3.0282,3.024,3.0216,3.0193,3.0175,3.0151,3.0133,3.01,3.007,3.0046,3.0008,2.998,2.9966,2.996,2.9931,2.9933,2.9935,2.9932,2.9916,2.9916,2.9917,2.9912,2.9912,2.9912,0,0,3.0326,3.0303,3.0286,3.0263,3.0227,3.0203,3.0199,3.0158,3.0141,3.0111,3.0086,3.0063,3.0014,2.9988,2.9968,2.9962,2.9943,2.9953,2.9962,2.9947,2.9947,2.9948,2.9945,2.9944,2.9952,2.9952,2.9952,0,3.034,3.0307,3.0279,3.0257,3.0239,3.021,3.0192,3.0169,3.0125,3.0112,3.0107,3.0045,3.0017,2.9982,2.9981,2.9966,2.9959,2.9958,2.995,2.995,2.9949,2.9946,2.9945,2.9954,2.9953,2.9953,2.9953,0,3.0326,3.0303,3.0293,3.0254,3.0234,3.0214,3.0181,3.0164,3.0146,3.0122,3.0091,3.0057,3.002,3.001,2.9991,2.9972,2.997,2.9958,2.9947,2.9952,2.9948,2.9947,2.9956,2.9955,2.9955,2.9954,0,0,3.0347,3.0293,3.029,3.0272,3.0231,3.0211,3.0189,3.0156,3.0141,3.0112,3.0091,3.0051,3.004,3.0017,2.9995,2.9982,2.9978,2.9971,2.9969,2.9973,2.9954,2.9963,2.9963,2.9966,2.9965,2.9965,2.9957,0,3.0344,3.0306,3.028,3.0251,3.0229,3.0201,3.0182,3.0153,3.013,3.0106,3.008,3.0052,3.004,3.0026,3.0011,2.9982,2.9974,2.9982,2.9944,2.9943,2.9955,2.9961,2.997,2.9964,2.9956,2.9955,2.9955,0,3.0336,3.031,3.028,3.0241,3.0231,3.0214,3.0181,3.0159,3.0126,3.011,3.0085,3.0063,3.0036,3.0029,2.9991,2.9997,2.998,2.9963,2.9962,2.9957,2.9949,2.9955,2.9962,2.9961,2.9953,2.9953,2.9953,0,3.0354,3.031,3.0287,3.0272,3.0227,3.0215,3.0195,3.0162,3.0144,3.0114,3.0101,3.0068,3.005,3.0024,2.9992,2.999,2.9957,2.9947,2.9941,2.9942,2.9935,2.9936,2.9939,2.9925,2.9925,2.9925,2.9925,0,3.0353,3.0335,3.0294,3.028,3.0258,3.0228,3.0207,3.0184,3.0155,3.0134,3.0107,3.0087,3.0047,3.0022,2.9997,2.9968,2.996,2.9945,2.9939,2.9947,2.9949,2.9935,2.9934,2.9925,2.9925,2.9925,2.9925,0,3.0369,3.0341,3.0313,3.0273,3.0263,3.0249,3.0213,3.0197,3.0173,3.0146,3.0138,3.0099,3.0068,3.0035,2.9991,2.9974,2.9947,2.9938,2.9959,2.9956,2.9952,2.9952,2.9945,2.9942,2.9931,2.9932,2.9932,0,3.037,3.0357,3.0316,3.0301,3.0283,3.0259,3.024,3.0209,3.019,3.0152,3.0139,3.0107,3.0079,3.003,2.9997,2.9963,2.9953,2.9953,2.9947,2.9957,2.9952,2.9953,2.9951,2.9954,2.9954,2.9954,2.9955,0,3.0376,3.0363,3.0339,3.031,3.0289,3.0264,3.0238,3.0226,3.0189,3.017,3.0139,3.0118,3.0075,3.0042,3.0005,2.9981,2.9961,2.9957,2.9954,2.9962,2.9975,2.9967,2.9963,2.9957,2.9957,2.9956,2.9956,2.9956,3.0384,3.037,3.034,3.0313,3.0291,3.0267,3.025,3.0225,3.0199,3.0164,3.0146,3.0115,3.008,3.0029,3.0006,2.998,2.9974,2.9969,2.9968,2.9967,2.9969,2.998,2.9973,2.9973,2.9973,2.9973,2.9972,0,3.0387,3.0367,3.0343,3.0308,3.0287,3.0273,3.0243,3.0226,3.02,3.0171,3.0145,3.0109,3.0077,3.0042,3.0007,2.9993,2.9983,2.9985,2.9985,2.998,2.9977,2.9983,2.9994,2.9994,2.9994,2.9994,2.9994,2.9994,3.0387,3.0363,3.0346,3.031,3.0289,3.0261,3.0245,3.0222,3.0198,3.0161,3.0135,3.0113,3.0081,3.0044,3.0014,3.0004,2.9992,2.9997,2.9984,2.9982,2.998,2.9978,2.9984,2.9994,2.9994,2.9989,2.9989,2.9989]}]]